Torna al catalogo

GOSAT 2

AttivoScienzaSSO
NORAD 43672·PAYLOAD·🇯🇵 Japan

Lanciato Oct 29, 2018 da Tanegashima Space Center

Loading…

Prossimi Passaggi (prossime 24 ore)

TLE

AggiornatoSource: Space-Track

Epoca: Sep 13, 2026, 13:00 UTC

1 43672U 18084B   26256.54200934  .00000834  00000-0  10601-3 0  9997
2 43672  97.8868   6.9886 0001425  91.6050 268.5328 14.84231156426663

Traccia GOSAT 2 in tempo reale con AllMySat

Download on the App Store